Alexandria, MN

3:05 AM CDT on July 24, 2017 (GMT -0500)
Chandler

Weather History for KAXN - December, 2013

Change the Weather History Date:

Saturday, December 7, 2013

  Actual Average Record
Temperature  
Mean Temperature -11 °F -  
Max Temperature -7 °F 25 °F 46 °F (1984)
Min Temperature -15 °F 9 °F -16 °F (1972)
Degree Days  
Heating Degree Days 76    
Moisture  
Dew Point -18 °F    
Average Humidity 76    
Maximum Humidity 82    
Minimum Humidity 68    
Precipitation  
Precipitation 0.00 in - - ()
Sea Level Pressure  
Sea Level Pressure 30.70 in    
Wind  
Wind Speed 8 mph (West)    
Max Wind Speed 13 mph    
Max Gust Speed -    
Visibility 10 miles    
Events      
Averages and records for this station are not official NWS values.
T = Trace of Precipitation, MM = Missing Value Source: NWS Daily Summary

Daily Weather History Graph

Daily Weather History Graph

Search for Another Location

Airport or City:

Trip Planner

Search our weather history database for the weather conditions in past years. The results will help you decide how hot, cold, wet, or windy it might be!

Date:

Astronomy

Dec. 07, 2013 Rise Set
Actual Time 7:49 AM CST 4:36 PM CST
Civil Twilight 7:15 AM CST 5:11 PM CST
Nautical Twilight 6:37 AM CST 5:48 PM CST
Astronomical Twilight 6:01 AM CST 6:24 PM CST
Moon 11:23 AM CST (12/7) 10:32 PM CST (12/7)
Length of Visible Light 9h 55m
Length of Day
8h 47m
Waxing Crescent, 29% of the Moon is Illuminated
Dec 7
Waxing Crescent
Dec 9
First Quarter
Dec 17
Full
Dec 25
Last Quarter
Jan 1
New

Hourly Weather History & Observations

Time (CST) Temp. Windchill Dew Point Humidity Pressure Visibility Wind Dir Wind Speed Gust Speed Precip Events Conditions
12:53 AM -14.1 °F -33.7 °F -20.0 °F 75% 30.71 in 10.0 mi West 10.4 mph - N/A   Clear
1:53 AM -14.1 °F -33.7 °F -18.9 °F 79% 30.72 in 10.0 mi West 10.4 mph - N/A   Clear
2:53 AM -13.0 °F -33.4 °F -18.0 °F 78% 30.73 in 10.0 mi West 11.5 mph - N/A   Clear
3:53 AM -14.1 °F -33.7 °F -20.0 °F 75% 30.73 in 10.0 mi West 10.4 mph - N/A   Clear
4:53 AM -14.1 °F -32.6 °F -20.0 °F 75% 30.73 in 10.0 mi WNW 9.2 mph - N/A   Clear
5:53 AM -15.0 °F -32.4 °F -20.9 °F 75% 30.72 in 10.0 mi West 8.1 mph - N/A   Clear
6:53 AM -15.0 °F -33.7 °F -20.0 °F 78% 30.73 in 10.0 mi West 9.2 mph - N/A   Clear
7:53 AM -15.0 °F -34.8 °F -20.0 °F 78% 30.73 in 10.0 mi West 10.4 mph - N/A   Clear
8:53 AM -11.9 °F -32.0 °F -18.0 °F 74% 30.74 in 10.0 mi West 11.5 mph - N/A   Clear
9:53 AM -11.0 °F -26.2 °F -17.0 °F 75% 30.74 in 10.0 mi West 6.9 mph - N/A   Clear
10:53 AM -9.9 °F -30.5 °F -17.0 °F 71% 30.75 in 10.0 mi West 12.7 mph - N/A   Clear
11:53 AM -9.0 °F -26.4 °F -16.1 °F 71% 30.73 in 10.0 mi WSW 9.2 mph - N/A   Clear
12:53 PM -7.1 °F -23.9 °F -15.0 °F 68% 30.73 in 10.0 mi West 9.2 mph - N/A   Clear
1:53 PM -7.1 °F -23.9 °F -14.1 °F 72% 30.72 in 10.0 mi West 9.2 mph - N/A   Clear
2:53 PM -7.1 °F -22.8 °F -15.0 °F 68% 30.69 in 10.0 mi WSW 8.1 mph - N/A   Clear
3:53 PM -8.0 °F -21.0 °F -15.0 °F 71% 30.69 in 10.0 mi West 5.8 mph - N/A   Clear
4:53 PM -9.9 °F -19.2 °F -16.1 °F 74% 30.68 in 10.0 mi WSW 3.5 mph - N/A   Clear
5:53 PM -9.9 °F -19.2 °F -15.0 °F 78% 30.67 in 10.0 mi SW 3.5 mph - N/A   Clear
6:53 PM -11.9 °F - -16.1 °F 82% 30.66 in 10.0 mi Calm Calm - N/A   Clear
7:53 PM -13.0 °F - -17.0 °F 82% 30.65 in 10.0 mi Calm Calm - N/A   Clear
8:53 PM -11.9 °F - -16.1 °F 82% 30.62 in 10.0 mi Calm Calm - N/A   Clear
9:53 PM -11.9 °F -21.5 °F -17.0 °F 78% 30.62 in 10.0 mi South 3.5 mph - N/A   Clear
10:53 PM -15.0 °F - -18.9 °F 82% 30.62 in 10.0 mi Calm Calm - N/A   Clear
11:53 PM -15.0 °F -27.4 °F -20.0 °F 78% 30.60 in 10.0 mi South 4.6 mph - N/A   Partly Cloudy